User: anonymous   Login
Location: Starry Hill Observatory
(46.8582°N, 122.3590°W)
Time: 22:27:35
(UTC-07:00)
Language:

Cosmos 1300 Rocket - Orbit

View from above orbital plane
View from above orbital plane
View from above satellite
View from above satellite

Ground track
Ground track

The orbit data is extracted from the following two-line orbital elements,

1 12786U 81082B   18174.88363916  .00000083  00000-0  68340-5 0  9995
2 12786  82.4882 337.3752 0019072 106.6708 253.6604 14.84731069989965
Epoch (UTC): 23 June 2018 21:12:26
Eccentricity: 0.0019072
inclination: 82.4882°
perigee height: 601 km
apogee height: 628 km
right ascension of ascending node: 337.3752°
argument of perigee: 106.6708°
revolutions per day: 14.84731069
mean anomaly at epoch: 253.6604°
orbit number at epoch: 98996

The dashed part of the orbit path shows where the satellite is in the earth's shadow,  

DLR